Location: Scottsdale
(33.5090°N, 111.8980°W)
Time: 14:43:02
(UTC-07:00)

ISS - Visible Passes

Search period start: 25 March 2017 00:00
Search period end: 04 April 2017 00:00
Orbit: 399 x 409 km, 51.6° (Epoch: 26 March)

Date Brightness Start Highest point End Pass type
(mag) Time Alt. Az. Time Alt. Az. Time Alt. Az.
25 Mar -0.6 04:08:03 11° ESE 04:08:03 11° ESE 04:08:09 10° ESE visible
25 Mar -1.8 05:40:48 13° WSW 05:41:09 13° SW 05:42:46 10° SSW visible
25 Mar -1.7 20:38:32 10° WSW 20:39:59 23° WSW 20:39:59 23° WSW visible
26 Mar -3.9 19:46:14 10° SW 19:49:25 59° SE 19:51:08 24° ENE visible
27 Mar -1.6 20:30:54 10° W 20:33:35 23° NW 20:34:46 19° N visible
28 Mar -2.7 19:37:58 10° WSW 19:41:06 45° NW 19:44:15 10° NE visible
29 Mar -0.7 20:24:14 10° NW 20:25:32 12° NNW 20:26:51 10° N visible
30 Mar -1.2 19:30:27 10° W 19:32:54 19° NW 19:35:21 10° NNE visible
01 Apr -0.5 19:24:33 10° NNW 19:24:49 10° NNW 19:25:06 10° NNW visible
